Milton, FL

9:45 AM CDT on October 21, 2017 (GMT -0500)
Whiting Field Naval Air Station (South)

Weather History for KNDZ - August, 2013

Change the Weather History Date:

Sunday, August 18, 2013

  Actual Average (KNSE) Record (KNSE)
Temperature  
Mean Temperature 75 °F -  
Max Temperature 79 °F 87 °F 99 °F (2011)
Min Temperature 71 °F 70 °F 64 °F (2004)
Cooling Degree Days 10    
Growing Degree Days 25 (Base 50)    
Moisture  
Dew Point 71 °F    
Average Humidity 92    
Maximum Humidity 94    
Minimum Humidity 82    
Precipitation  
Precipitation 2.01 in - - ()
Sea Level Pressure  
Sea Level Pressure 30.03 in    
Wind  
Wind Speed 8 mph (East)    
Max Wind Speed 16 mph    
Max Gust Speed 24 mph    
Visibility 9 miles    
Events Rain , Thunderstorm    
Averages and records for this station are not official NWS values.
T = Trace of Precipitation, MM = Missing Value Source: NWS Daily Summary

Daily Weather History Graph

Daily Weather History Graph

Search for Another Location

Airport or City:

Trip Planner

Search our weather history database for the weather conditions in past years. The results will help you decide how hot, cold, wet, or windy it might be!

Date:

Astronomy

Aug. 18, 2013 Rise Set
Actual Time 6:16 AM CDT 7:26 PM CDT
Civil Twilight 5:51 AM CDT 7:51 PM CDT
Nautical Twilight 5:21 AM CDT 8:21 PM CDT
Astronomical Twilight 4:50 AM CDT 8:52 PM CDT
Moon 5:28 PM CDT (8/18) 3:31 AM CDT (8/18)
Length of Visible Light 14h 00m
Length of Day
13h 10m
Waxing Gibbous, 92% of the Moon is Illuminated
Aug 18
Waxing Gibbous
Aug 20
Full
Aug 28
Last Quarter
Sep 5
New
Sep 12
First Quarter

Hourly Weather History & Observations

Time (CDT) Temp. Dew Point Humidity Pressure Visibility Wind Dir Wind Speed Gust Speed Precip Events Conditions
12:23 AM 71.6 °F 69.8 °F 94% 30.02 in 10.0 mi NE 6.9 mph - N/A   Overcast
12:56 AM 71.1 °F 69.1 °F 93% 29.99 in 10.0 mi NE 6.9 mph - 0.00 in Rain Light Rain
1:13 AM 71.6 °F 69.8 °F 94% 30.02 in 10.0 mi East 11.5 mph - 0.02 in Rain Rain
1:30 AM 71.6 °F 69.8 °F 94% 30.01 in 10.0 mi East 12.7 mph - 0.04 in Rain Rain
1:42 AM 71.6 °F 69.8 °F 94% 30.02 in 10.0 mi East 10.4 mph - 0.05 in Rain Light Rain
1:56 AM 71.1 °F 69.1 °F 93% 29.98 in 10.0 mi ENE 10.4 mph - 0.05 in   Overcast
2:05 AM 71.6 °F 69.8 °F 94% 30.02 in 10.0 mi East 10.4 mph - N/A   Overcast
2:56 AM 71.1 °F 69.1 °F 93% 29.98 in 10.0 mi NE 12.7 mph - 0.09 in Rain Rain
3:33 AM 71.6 °F 69.8 °F 94% 30.02 in 10.0 mi ENE 9.2 mph - 0.11 in Rain Rain
3:42 AM 71.6 °F 69.8 °F 94% 30.02 in 10.0 mi East 8.1 mph - 0.13 in Rain Rain
3:56 AM 72.0 °F 69.1 °F 91% 29.97 in 10.0 mi ENE 9.2 mph - 0.14 in Rain Light Rain
4:28 AM 71.6 °F 69.8 °F 94% 30.01 in 10.0 mi NE 6.9 mph - 0.03 in Rain Light Rain
4:37 AM 71.6 °F 69.8 °F 94% 30.02 in 10.0 mi NE 8.1 mph - 0.04 in Rain Light Rain
4:53 AM 71.6 °F 69.8 °F 94% 30.03 in 10.0 mi NE 6.9 mph - 0.06 in Rain Light Rain
4:56 AM 71.1 °F 69.1 °F 93% 29.98 in 10.0 mi ENE 8.1 mph - 0.06 in Rain Rain
5:42 AM 71.6 °F 69.8 °F 94% 30.02 in 10.0 mi ENE 6.9 mph - 0.06 in Rain , Thunderstorm Light Thunderstorms and Rain
5:53 AM 71.6 °F 69.8 °F 94% 30.03 in 10.0 mi East 4.6 mph - 0.06 in Rain Light Rain
5:56 AM 72.0 °F 70.0 °F 93% 29.99 in 10.0 mi East 6.9 mph - 0.06 in Rain Light Rain
6:08 AM 71.6 °F 69.8 °F 94% 30.03 in 10.0 mi East 9.2 mph - 0.02 in Rain Light Rain
6:56 AM 73.0 °F 71.1 °F 93% 29.99 in 10.0 mi East 8.1 mph - 0.14 in Rain Rain
7:03 AM 73.4 °F 71.6 °F 94% 30.04 in 10.0 mi East 6.9 mph - 0.01 in Rain , Thunderstorm Thunderstorms and Rain
7:49 AM 73.4 °F 71.6 °F 94% 30.03 in 2.0 mi SE 8.1 mph - 0.32 in Rain Heavy Rain
7:56 AM 73.0 °F 71.1 °F 93% 30.00 in 2.0 mi SSE 16.1 mph 21.9 mph 0.41 in Rain Heavy Rain
8:07 AM 73.4 °F 69.8 °F 88% 30.03 in 4.0 mi ESE 12.7 mph 24.2 mph 0.10 in Rain Rain
8:16 AM 75.2 °F 71.6 °F 89% 30.03 in 10.0 mi ESE 15.0 mph - 0.12 in Rain Rain
8:23 AM 75.2 °F 71.6 °F 89% 30.03 in 10.0 mi ESE 11.5 mph - 0.12 in Rain Light Rain
8:56 AM 73.9 °F 72.0 °F 93% 30.01 in 10.0 mi ESE 5.8 mph - 0.14 in   Scattered Clouds
9:14 AM 73.4 °F 71.6 °F 94% 30.05 in 10.0 mi ESE 8.1 mph - N/A Thunderstorm Thunderstorm
9:46 AM 73.4 °F 71.6 °F 94% 30.05 in 10.0 mi East 5.8 mph - N/A Thunderstorm Thunderstorm
9:56 AM 73.9 °F 72.0 °F 93% 30.01 in 10.0 mi East 3.5 mph - N/A Thunderstorm Thunderstorm
10:32 AM 75.2 °F 73.4 °F 94% 30.06 in 10.0 mi East 5.8 mph - N/A   Clear
10:40 AM 75.2 °F 73.4 °F 94% 30.06 in 10.0 mi East 5.8 mph - N/A Thunderstorm Thunderstorm
10:56 AM 75.0 °F 73.0 °F 94% 30.02 in 10.0 mi East 4.6 mph - 0.00 in Rain , Thunderstorm Light Thunderstorms and Rain
11:24 AM 75.2 °F 73.4 °F 94% 30.09 in 2.5 mi SSW 8.1 mph - 0.13 in Rain Heavy Rain
11:26 AM 75.2 °F 73.4 °F 94% 30.10 in 1.5 mi SSW 11.5 mph 17.3 mph 0.23 in Rain Heavy Rain
11:34 AM 71.6 °F 68.0 °F 88% 30.10 in 0.8 mi SSE 8.1 mph 17.3 mph 0.53 in Rain , Thunderstorm Heavy Thunderstorms and Rain
11:43 AM 73.4 °F 68.0 °F 83% 30.07 in 1.8 mi Calm Calm - 0.67 in Rain , Thunderstorm Heavy Thunderstorms and Rain
11:47 AM 73.4 °F 69.8 °F 88% 30.07 in 3.0 mi Variable 3.5 mph - 0.68 in Rain , Thunderstorm Light Thunderstorms and Rain
11:53 AM 75.2 °F 69.8 °F 83% 30.06 in 10.0 mi East 4.6 mph - 0.68 in   Mostly Cloudy
11:56 AM 75.0 °F 71.1 °F 87% 30.02 in 10.0 mi ENE 5.8 mph - 0.68 in   Mostly Cloudy
12:56 PM 73.9 °F 72.0 °F 93% 30.02 in 10.0 mi NW 4.6 mph - 0.06 in Thunderstorm Thunderstorm
1:13 PM 73.4 °F 71.6 °F 94% 30.07 in 4.0 mi ENE 8.1 mph - 0.07 in Rain Heavy Rain
1:23 PM 73.4 °F 71.6 °F 94% 30.07 in 5.0 mi Calm Calm - 0.11 in Rain , Thunderstorm Heavy Thunderstorms and Rain
1:46 PM 75.2 °F 73.4 °F 94% 30.06 in 10.0 mi NNE 4.6 mph - 0.15 in Rain , Thunderstorm Light Thunderstorms and Rain
1:56 PM 75.9 °F 73.0 °F 91% 30.01 in 10.0 mi NE 3.5 mph - 0.15 in Thunderstorm Thunderstorm
2:01 PM 75.2 °F 73.4 °F 94% 30.05 in 10.0 mi NE 4.6 mph - N/A   Mostly Cloudy
2:56 PM 75.9 °F 73.0 °F 91% 29.97 in 10.0 mi ENE 6.9 mph - N/A   Partly Cloudy
3:08 PM 75.2 °F 73.4 °F 94% 30.02 in 10.0 mi ENE 5.8 mph - N/A   Partly Cloudy
3:56 PM 77.0 °F 73.0 °F 88% 30.01 in 10.0 mi ESE 3.5 mph - N/A   Mostly Cloudy
4:56 PM 79.0 °F 73.0 °F 82% 30.00 in 10.0 mi East 6.9 mph - N/A   Overcast
5:56 PM 79.0 °F 73.0 °F 82% 29.98 in 10.0 mi East 8.1 mph - N/A   Overcast
6:56 PM 77.0 °F 73.9 °F 90% 29.99 in 10.0 mi ENE 6.9 mph - 0.03 in   Overcast
7:18 PM 77.0 °F 73.4 °F 89% 30.03 in 10.0 mi ENE 6.9 mph - N/A   Overcast
7:26 PM 77.0 °F 73.4 °F 89% 30.04 in 10.0 mi ENE 5.8 mph - N/A   Overcast
7:39 PM 75.2 °F 73.4 °F 94% 30.04 in 10.0 mi East 9.2 mph - N/A   Overcast
7:56 PM 75.9 °F 73.0 °F 91% 30.00 in 10.0 mi East 9.2 mph - N/A   Mostly Cloudy
8:56 PM 75.0 °F 72.0 °F 90% 30.00 in 10.0 mi East 10.4 mph - N/A   Mostly Cloudy
9:56 PM 73.9 °F 72.0 °F 93% 30.01 in 10.0 mi East 6.9 mph - N/A   Mostly Cloudy
10:03 PM 73.4 °F 71.6 °F 94% 30.05 in 10.0 mi ESE 8.1 mph - N/A   Partly Cloudy
10:31 PM 73.4 °F 71.6 °F 94% 30.05 in 10.0 mi East 8.1 mph - N/A   Mostly Cloudy
10:40 PM 73.4 °F 71.6 °F 94% 30.05 in 10.0 mi ESE 8.1 mph - N/A   Scattered Clouds
10:56 PM 73.0 °F 71.1 °F 93% 30.01 in 10.0 mi ESE 6.9 mph - N/A   Partly Cloudy
11:15 PM 73.4 °F 71.6 °F 94% 30.05 in 10.0 mi ESE 6.9 mph - N/A   Mostly Cloudy
11:53 PM 73.4 °F 71.6 °F 94% 30.06 in 10.0 mi ESE 5.8 mph - N/A   Scattered Clouds
11:56 PM 73.0 °F 71.1 °F 93% 30.01 in 10.0 mi ESE 5.8 mph - N/A   Partly Cloudy